Regional Weather Roundup
Issued by NWS

Home | Current Version | Previous Version | Graphics & Text | Print | Product List | Glossary On
Versions: 1 2 3 4 5 6 7 8 9 10 11 12 13 14 15 16 17 18 19 20 21 22 23 24 25 26 27 28 29 30 31 32 33 34 35 36 37 38 39 40 41 42 43 44 45 46 47 48 49 50
000
ASUS43 KMPX 021010
RWRMN
WEATHER ROUNDUP FOR MINNESOTA
NATIONAL WEATHER SERVICE TWIN CITIES/CHANHASSEN MN
500 AM CDT WED SEP 02 2015


NOTE: "FAIR" INDICATES FEW OR NO CLOUDS BELOW 12,000 FEET WITH NO
SIGNIFICANT WEATHER AND/OR OBSTRUCTIONS TO VISIBILITY. N/A MEANS
CURRENT SKY AND/OR WEATHER CONDITIONS ARE NOT AVAILABLE.

MNZ060>063-068>070-021100-
   Twin Cities Metro

CITY           SKY/WX    TMP DP  RH WIND       PRES   REMARKS
TWIN CITIES    LGT RAIN  70  67  90 CALM      29.93F
ST PAUL        LGT RAIN  70  69  97 NW5       29.92F
CRYSTAL        LGT RAIN  71  67  87 CALM      29.91F FOG
BLAINE         RAIN      72  70  94 SW3       29.93S
LAKEVILLE      CLOUDY    68  68 100 CALM      29.94S
EDEN PRAIRIE   LGT RAIN  69  66  90 SE6       29.91F
SOUTH ST PAUL  LGT RAIN  70  68  94 NW3       29.92F
LAKE ELMO      RAIN      70  70 100 NW6       29.94S
$$
MNZ001>005-007-008-013>017-022>024-027-028-021100-
   Northwest Minnesota

CITY           SKY/WX    TMP DP  RH WIND       PRES   REMARKS
BEMIDJI        CLEAR     63  62  97 SE3       29.90S
HALLOCK        CLEAR     66  63  88 SE8       29.81S
ROSEAU         CLEAR     61  55  82 CALM      29.86R
WARROAD        CLEAR     61  57  88 SE5       29.87F
THIEF RVR FALL CLEAR     63  61  94 E7        29.86S
CROOKSTON      CLEAR     66  64  94 S8        29.84S
FOSSTON        CLEAR     64  63  94 S6        29.89R
DETROIT LAKES  PTCLDY    68  68 100 SE6       29.89S FOG
MOORHEAD       CLEAR     68  66  94 S8        29.86R
PARK RAPIDS    FOG       67  65  93 SE5       29.90S VSB 1/4
MAHNOMEN       FAIR      67  66  96 SE3       29.88R
$$
MNZ006-009>011-018-025>026-021100-
   North Central Minnesota

CITY           SKY/WX    TMP DP  RH WIND       PRES   REMARKS
BAUDETTE       CLEAR     58  54  86 SE6       29.89R
FLAG ISLAND    CLEAR     68  61  77 SE9       29.87S
INTL FALLS     CLEAR     52  52 100 CALM      29.92R
WASKISH        CLEAR     61  57  88 SE5       29.89S
BIG FORK       PTCLDY    57  55  94 CALM      29.92S
LONGVILLE      FOG       61  61 100 CALM      29.90S VSB 3/4
GRAND RAPIDS     N/A     61  57  88 CALM      29.92F
CRANE LAKE     CLEAR     48  46  93 CALM      29.95S
ORR            CLEAR     52  48  87 CALM      29.92R
COOK           PTCLDY    55  54  94 CALM      29.95R
WALKER         CLOUDY    65  65  99 CALM      29.90S FOG
$$
MNZ012-019>021-037-021100-
   Northeast Minnesota

CITY           SKY/WX    TMP DP  RH WIND       PRES   REMARKS
DULUTH         CLOUDY    68  66  93 E5        29.94S FOG
ELY            PTCLDY    52  50  93 CALM      29.95S
HIBBING        MOCLDY    64  60  87 CALM      29.94S
EVELETH        MOCLDY    63  61  94 CALM      29.95S
DULUTH HARBOR  CLOUDY    64  61  88 CALM      29.92S
TWO HARBORS    CLOUDY    70  61  73 N6        29.92R
SILVER BAY     CLOUDY    61  57  88 CALM      29.93R
GRAND MARAIS     N/A     55  52  89 N3        29.95R
G MARAIS ARPRT PTCLDY    50  46  87 CALM      30.01R
$$
MNZ029>031-032-039>041-046>048-054>057-064-021100-
   West Central Minnesota

CITY           SKY/WX    TMP DP  RH WIND       PRES   REMARKS
FERGUS FALLS   CLEAR     66  64  94 SE7       29.86S
WHEATON        CLEAR     59  57  94 E7        29.87S
MORRIS         PTCLDY    64  63  94 SE7       29.86S
ALEXANDRIA     PTCLDY    66  63  90 SE6       29.90F
ELBOW LAKE     FAIR      65  62  90 SE9       29.87R
WADENA         FOG       64  64 100 CALM      29.90R VSB 1/4
GLENWOOD       MOCLDY    64  63  94 E5        29.90S
APPLETON       PTCLDY    66  61  82 SE6       29.86R
BENSON         MOCLDY    68  61  77 S9        29.87R
ORTONVILLE     PTCLDY    64  63  94 SE5       29.86R
MADISON        CLEAR     64  63  94 SE5       29.86S
WILLMAR        FAIR      68  64  88 SE9       29.89F
$$
MNZ033>034-036-042>043-049>051-058-059-021100-
   Central Minnesota

CITY           SKY/WX    TMP DP  RH WIND       PRES   REMARKS
ST CLOUD       CLOUDY    70  68  93 SE6       29.92R
SAUK CENTRE    FAIR      66  64  94 CALM      29.91S
PAYNESVILLE    CLOUDY    68  66  93 NE5       29.91S
AITKIN         CLOUDY    70  64  83 CALM      29.90R HAZE
PINE RIVER     FOG       64  64 100 CALM      29.93S VSB 1/4
BRAINERD       CLOUDY    70  68  93 CALM      29.91S FOG
STAPLES        MOCLDY    68  66  94 SE3       29.89F FOG
LONG PRAIRIE   FAIR      64  64 100 CALM      29.91F
LITTLE FALLS   CLOUDY    70  68  94 SE5       29.92R FOG
LITCHFIELD     CLOUDY    68  68 100 CALM      29.90F
BUFFALO        LGT RAIN  67  64  87 N3        29.91F
MAPLE LAKE     DRIZZLE   69  67  94 NE6       29.92F
$$
MNZ037-044-045-052-053-021100-
   East Central Minnesota

CITY           SKY/WX    TMP DP  RH WIND       PRES   REMARKS
PRINCETON      LGT RAIN  70  66  88 CALM      29.93S
MORA           CLOUDY    72  70  94 SW12G20   29.93R
CAMBRIDGE      RAIN      72  63  73 S8        29.92R
RUSH CITY      LGT RAIN  74  71  92 SW8       29.93R
MOOSE LAKE     CLOUDY    70  70 100 CALM      29.91R FOG
HINCKLEY       LGT RAIN  72  72 100 E5        29.93R
CLOQUET        FOG       70  66  88 E3        29.93S VSB 1/2
MCGREGOR       CLOUDY    72  70  94 CALM      29.91S
$$
MNZ071>073-080-081-089-090-097-098-021100-
   Southwest Minnesota

CITY           SKY/WX    TMP DP  RH WIND       PRES   REMARKS
MONTEVIDEO     PTCLDY    66  64  94 S7        29.88S
GRANITE FALLS  MOCLDY    65  64  96 CALM      29.88S
CANBY          CLEAR     63  60  93 S5        29.87F
MARSHALL       CLEAR     64  57  77 SE6       29.88S
REDWOOD FALLS  MOCLDY    67  64  90 SE10      29.87F
OLIVIA         CLOUDY    64  61  88 E5        29.87F
PIPESTONE      CLEAR     64  63  94 SE7       29.88S FOG
WINDOM         CLEAR     68  66  94 E9        29.90F
WORTHINGTON    CLEAR     66  63  88 SE5       29.91R
JACKSON        CLEAR     68  68 100 SE6       29.92S FOG
TRACY          CLEAR     67  66  95 S7        29.89S
SLAYTON        CLEAR     65  65 100 CALM      29.91S FOG
$$
MNZ065>067-074>077-082>085-091>093-021100-
   South Central Minnesota

CITY           SKY/WX    TMP DP  RH WIND       PRES   REMARKS
MANKATO        CLOUDY    68  63  83 E7        29.91F
NEW ULM        CLOUDY    66  64  94 SE9       29.89F
ST JAMES       PTCLDY    66  64  94 E8        29.91F
FAIRMONT       CLOUDY    72  64  78 S8        29.92S
GLENCOE        CLOUDY    68  65  92 SE8       29.89S
FARIBAULT      CLOUDY    68  66  94 S9        29.95F
OWATONNA       TSTM      68  64  88 W9        29.98S
WASECA         CLOUDY    68  64  88 SE7       29.96F
ALBERT LEA     TSTM      72  70  94 N9        29.96R
$$
MNZ078>079-086>088-094>096-021100-
   Southeast Minnesota

CITY           SKY/WX    TMP DP  RH WIND       PRES   REMARKS
ROCHESTER      CLOUDY    70  68  93 SW7       29.99R FOG
RED WING       CLOUDY    75  72  88 W8        29.93S
STANTON        TSTM      71  67  87 S12G18    29.92F
DODGE CENTER   LGT RAIN  72  70  94 NW14G20   30.00R
WINONA         CLOUDY    73  72  94 CALM      29.96R
AUSTIN         LGT RAIN  72  70  94 CALM      29.98R
PRESTON        CLOUDY    71  67  87 S6        29.99S
$$
ABBREVIATIONS USED IN REMARKS
   TC - TEMPERATURES IN CELSIUS
  WCI - WIND CHILL INDEX
   HX - HEAT INDEX
  VSB - VISIBILITY
$$



USA.gov is the U.S. government's official web portal to all federal, state and local government web resources and services.